| time (UTC) | temp C | wind direction | speed KPH | gust KPH | rain 1hr cm | rain 24hr cm | rain mn cm | humidity % | barometer mb |
| 20260507085531 | 9 | 336 | 3.2 | 8.0 | 0.00 | 0.71 | 0.10 | 87 | 1004.3 |
| 20260507085031 | 9 | 329 | 4.8 | 14.5 | 0.00 | 0.71 | 0.10 | 86 | 1004.4 |
| 20260507084556 | 9 | 352 | 6.4 | 14.5 | 0.00 | 0.71 | 0.10 | 86 | 1004.2 |
| 20260507084030 | 9 | 355 | 6.4 | 14.5 | 0.00 | 0.71 | 0.10 | 86 | 1004.6 |
| 20260507083530 | 9 | 303 | 8.0 | 19.3 | 0.00 | 0.71 | 0.10 | 85 | 1004.8 |
| 20260507083047 | 9 | 317 | 6.4 | 19.3 | 0.00 | 0.71 | 0.10 | 86 | 1004.7 |
| 20260507082533 | 10 | 304 | 8.0 | 14.5 | 0.00 | 0.71 | 0.10 | 87 | 1004.5 |
| 20260507082032 | 10 | 312 | 6.4 | 17.7 | 0.00 | 0.71 | 0.10 | 87 | 1004.4 |
| 20260507081546 | 10 | 302 | 6.4 | 17.7 | 0.00 | 0.71 | 0.10 | 88 | 1004.2 |
| 20260507081032 | 10 | 355 | 8.0 | 17.7 | 0.00 | 0.71 | 0.10 | 89 | 1004.0 |
| 20260507080532 | 9 | 5 | 8.0 | 17.7 | 0.00 | 0.71 | 0.10 | 91 | 1003.8 |
| 20260507080052 | 10 | 325 | 4.8 | 12.9 | 0.00 | 0.71 | 0.10 | 92 | 1003.9 |
| 20260507075535 | 9 | 341 | 4.8 | 9.7 | 0.00 | 0.71 | 0.10 | 92 | 1004.0 |
| 20260507075032 | 10 | 341 | 1.6 | 6.4 | 0.00 | 0.71 | 0.10 | 93 | 1004.2 |
| 20260507074545 | 10 | 311 | 1.6 | 6.4 | 0.00 | 0.71 | 0.10 | 93 | 1004.3 |
| 20260507074031 | 10 | 308 | 3.2 | 6.4 | 0.00 | 0.71 | 0.10 | 93 | 1004.3 |
| 20260507073532 | 10 | 327 | 3.2 | 8.0 | 0.00 | 0.71 | 0.10 | 93 | 1004.0 |
| 20260507073045 | 10 | 320 | 4.8 | 8.0 | 0.00 | 0.71 | 0.10 | 93 | 1004.1 |
| 20260507072533 | 10 | 344 | 4.8 | 8.0 | 0.00 | 0.71 | 0.10 | 93 | 1004.0 |
| 20260507072032 | 10 | 340 | 3.2 | 8.0 | 0.00 | 0.71 | 0.10 | 94 | 1003.9 |
| 20260507071547 | 10 | 327 | 3.2 | 4.8 | 0.00 | 0.71 | 0.10 | 94 | 1003.7 |
| 20260507071032 | 10 | 327 | 3.2 | 4.8 | 0.00 | 0.71 | 0.10 | 94 | 1003.8 |
| 20260507070532 | 10 | 321 | 3.2 | 6.4 | 0.00 | 0.71 | 0.10 | 94 | 1003.8 |
| 20260507070059 | 10 | 329 | 3.2 | 6.4 | 0.00 | 0.71 | 0.10 | 94 | 1003.8 |
| 20260507065532 | 10 | 322 | 3.2 | 6.4 | 0.00 | 0.71 | 0.10 | 94 | 1003.6 |
| 20260507065032 | 10 | 319 | 3.2 | 4.8 | 0.00 | 0.71 | 0.10 | 94 | 1003.6 |
| 20260507064547 | 10 | 305 | 0.0 | 4.8 | 0.00 | 0.71 | 0.10 | 94 | 1003.7 |
| 20260507064032 | 10 | 0 | 0.0 | 3.2 | 0.00 | 0.71 | 0.10 | 94 | 1003.7 |
| 20260507063532 | 10 | 305 | 0.0 | 4.8 | 0.00 | 0.71 | 0.10 | 94 | 1003.7 |
| 20260507063041 | 10 | 0 | 0.0 | 4.8 | 0.00 | 0.71 | 0.10 | 94 | 1003.5 |
| 20260507062533 | 10 | 305 | 1.6 | 4.8 | 0.00 | 0.71 | 0.10 | 94 | 1003.6 |
| 20260507062033 | 10 | 328 | 3.2 | 4.8 | 0.00 | 0.71 | 0.10 | 94 | 1003.5 |
| 20260507061545 | 10 | 300 | 0.0 | 3.2 | 0.03 | 0.71 | 0.10 | 94 | 1003.5 |
| 20260507061033 | 10 | 0 | 0.0 | 6.4 | 0.03 | 0.71 | 0.10 | 94 | 1003.4 |
| 20260507060532 | 10 | 0 | 1.6 | 8.0 | 0.03 | 0.71 | 0.10 | 94 | 1003.4 |
| 20260507060048 | 10 | 301 | 3.2 | 8.0 | 0.03 | 0.71 | 0.10 | 95 | 1003.5 |
| 20260507055533 | 10 | 313 | 4.8 | 8.0 | 0.03 | 0.71 | 0.10 | 95 | 1003.5 |
| 20260507055032 | 10 | 306 | 3.2 | 8.0 | 0.03 | 0.71 | 0.10 | 95 | 1003.4 |
| 20260507054547 | 10 | 321 | 3.2 | 12.9 | 0.03 | 0.71 | 0.10 | 95 | 1003.3 |
| 20260507054032 | 10 | 342 | 3.2 | 16.1 | 0.03 | 0.71 | 0.10 | 95 | 1003.2 |
| 20260507053533 | 10 | 5 | 6.4 | 16.1 | 0.03 | 0.71 | 0.10 | 95 | 1003.1 |
| 20260507053054 | 10 | 350 | 6.4 | 16.1 | 0.05 | 0.71 | 0.10 | 96 | 1003.3 |
| 20260507052530 | 11 | 20 | 4.8 | 12.9 | 0.05 | 0.71 | 0.10 | 96 | 1003.3 |
| 20260507052030 | 11 | 31 | 3.2 | 11.3 | 0.08 | 0.71 | 0.10 | 97 | 1003.4 |
| 20260507051545 | 11 | 13 | 6.4 | 14.5 | 0.08 | 0.69 | 0.08 | 97 | 1003.4 |
| 20260507051029 | 11 | 28 | 4.8 | 14.5 | 0.08 | 0.69 | 0.08 | 97 | 1003.4 |
| 20260507050530 | 11 | 39 | 4.8 | 14.5 | 0.08 | 0.69 | 0.08 | 97 | 1003.3 |
| 20260507050104 | 12 | 18 | 6.4 | 14.5 | 0.08 | 0.69 | 0.08 | 98 | 1003.2 |
| 20260507045531 | 12 | 330 | 4.8 | 11.3 | 0.13 | 0.69 | 0.08 | 98 | 1002.9 |
| 20260507045031 | 12 | 309 | 4.8 | 8.0 | 0.13 | 0.69 | 0.08 | 98 | 1002.8 |
| 20260507044551 | 12 | 306 | 4.8 | 8.0 | 0.13 | 0.69 | 0.08 | 98 | 1002.7 |
| 20260507044030 | 12 | 294 | 1.6 | 3.2 | 0.13 | 0.69 | 0.08 | 98 | 1002.7 |
| 20260507043530 | 12 | 251 | 0.0 | 3.2 | 0.13 | 0.69 | 0.08 | 98 | 1002.7 |
| 20260507043044 | 12 | 293 | 0.0 | 6.4 | 0.10 | 0.66 | 0.05 | 98 | 1002.4 |
| 20260507042530 | 12 | 293 | 1.6 | 8.0 | 0.10 | 0.66 | 0.05 | 98 | 1002.2 |
| 20260507042030 | 12 | 284 | 3.2 | 8.0 | 0.08 | 0.64 | 0.03 | 98 | 1002.4 |
| 20260507041547 | 12 | 289 | 4.8 | 12.9 | 0.08 | 0.61 | 0.00 | 98 | 1002.4 |
| 20260507041032 | 11 | 288 | 0.0 | 12.9 | 0.08 | 0.61 | 0.00 | 98 | 1002.8 |
| 20260507040530 | 11 | 0 | 3.2 | 12.9 | 0.08 | 0.61 | 0.00 | 98 | 1002.7 |
| 20260507040048 | 11 | 253 | 1.6 | 11.3 | 0.08 | 0.61 | 0.00 | 98 | 1002.7 |
| 20260507035530 | 11 | 209 | 4.8 | 11.3 | 0.03 | 0.56 | 0.56 | 97 | 1002.5 |
| 20260507035033 | 11 | 180 | 3.2 | 16.1 | 0.03 | 0.56 | 0.56 | 97 | 1002.7 |
| 20260507034544 | 10 | 209 | 4.8 | 16.1 | 0.03 | 0.56 | 0.56 | 98 | 1002.6 |
| 20260507034031 | 10 | 221 | 3.2 | 8.0 | 0.03 | 0.56 | 0.56 | 97 | 1002.3 |
| 20260507033531 | 10 | 202 | 3.2 | 9.7 | 0.03 | 0.56 | 0.56 | 97 | 1002.4 |
| 20260507033045 | 10 | 173 | 3.2 | 9.7 | 0.03 | 0.56 | 0.56 | 97 | 1002.3 |
| 20260507032530 | 10 | 259 | 3.2 | 9.7 | 0.03 | 0.56 | 0.56 | 97 | 1002.2 |
| 20260507032030 | 10 | 211 | 1.6 | 11.3 | 0.03 | 0.56 | 0.56 | 97 | 1002.3 |
| 20260507031548 | 10 | 179 | 3.2 | 12.9 | 0.00 | 0.53 | 0.53 | 97 | 1002.1 |
| 20260507031033 | 10 | 185 | 4.8 | 14.5 | 0.00 | 0.53 | 0.53 | 97 | 1002.2 |
| 20260507030531 | 10 | 199 | 4.8 | 14.5 | 0.00 | 0.53 | 0.53 | 97 | 1002.1 |
| 20260507030048 | 10 | 225 | 4.8 | 19.3 | 0.00 | 0.53 | 0.53 | 97 | 1002.2 |
| 20260507025530 | 10 | 182 | 4.8 | 19.3 | 0.00 | 0.53 | 0.53 | 97 | 1002.0 |
| 20260507025030 | 10 | 225 | 8.0 | 19.3 | 0.00 | 0.53 | 0.53 | 97 | 1002.2 |
| 20260507024547 | 10 | 188 | 4.8 | 16.1 | 0.00 | 0.53 | 0.53 | 97 | 1002.3 |
| 20260507024030 | 10 | 233 | 3.2 | 14.5 | 0.00 | 0.53 | 0.53 | 97 | 1002.2 |
| 20260507023530 | 10 | 148 | 4.8 | 24.1 | 0.00 | 0.53 | 0.53 | 97 | 1002.3 |
| 20260507023040 | 10 | 194 | 6.4 | 24.1 | 0.00 | 0.53 | 0.53 | 97 | 1002.4 |
| 20260507022530 | 10 | 212 | 4.8 | 16.1 | 0.00 | 0.53 | 0.53 | 97 | 1002.5 |
| 20260507022030 | 10 | 230 | 6.4 | 16.1 | 0.00 | 0.53 | 0.53 | 97 | 1002.6 |
| 20260507021553 | 10 | 213 | 4.8 | 20.9 | 0.03 | 0.53 | 0.53 | 97 | 1002.7 |
| 20260507021030 | 10 | 251 | 8.0 | 24.1 | 0.03 | 0.53 | 0.53 | 97 | 1002.7 |
| 20260507020533 | 10 | 214 | 6.4 | 24.1 | 0.03 | 0.53 | 0.53 | 97 | 1002.8 |
| 20260507020042 | 10 | 219 | 6.4 | 16.1 | 0.03 | 0.53 | 0.53 | 97 | 1002.8 |
| 20260507015530 | 10 | 198 | 6.4 | 22.5 | 0.03 | 0.53 | 0.53 | 97 | 1002.8 |
| 20260507015030 | 10 | 192 | 6.4 | 22.5 | 0.03 | 0.53 | 0.53 | 97 | 1002.8 |
| 20260507014543 | 10 | 201 | 6.4 | 19.3 | 0.03 | 0.53 | 0.53 | 97 | 1003.0 |
| 20260507014034 | 10 | 165 | 6.4 | 19.3 | 0.03 | 0.53 | 0.53 | 97 | 1003.1 |
| 20260507013530 | 10 | 200 | 8.0 | 19.3 | 0.03 | 0.53 | 0.53 | 97 | 1003.1 |
| 20260507013039 | 10 | 131 | 6.4 | 19.3 | 0.05 | 0.53 | 0.53 | 96 | 1003.1 |
| 20260507012531 | 10 | 225 | 6.4 | 22.5 | 0.05 | 0.53 | 0.53 | 96 | 1003.1 |
| 20260507012032 | 9 | 79 | 6.4 | 22.5 | 0.03 | 0.51 | 0.51 | 96 | 1003.0 |
| 20260507011540 | 10 | 214 | 8.0 | 20.9 | 0.03 | 0.51 | 0.51 | 96 | 1003.2 |
| 20260507011030 | 9 | 191 | 6.4 | 19.3 | 0.03 | 0.51 | 0.51 | 96 | 1003.2 |
| 20260507010530 | 9 | 202 | 6.4 | 19.3 | 0.03 | 0.51 | 0.51 | 96 | 1003.2 |
| 20260507010046 | 10 | 248 | 6.4 | 19.3 | 0.03 | 0.51 | 0.51 | 96 | 1003.3 |
| 20260507005530 | 10 | 193 | 6.4 | 16.1 | 0.03 | 0.51 | 0.51 | 96 | 1003.2 |
| 20260507005033 | 10 | 182 | 6.4 | 16.1 | 0.03 | 0.51 | 0.51 | 96 | 1003.4 |
| 20260507004546 | 10 | 230 | 4.8 | 22.5 | 0.03 | 0.51 | 0.51 | 96 | 1003.2 |
| 20260507004030 | 10 | 194 | 4.8 | 22.5 | 0.03 | 0.51 | 0.51 | 96 | 1003.3 |
| 20260507003531 | 10 | 221 | 8.0 | 27.4 | 0.03 | 0.51 | 0.51 | 96 | 1003.3 |
| 20260507003040 | 10 | 209 | 6.4 | 27.4 | 0.00 | 0.48 | 0.48 | 96 | 1003.4 |
| 20260507002530 | 10 | 239 | 8.0 | 25.7 | 0.00 | 0.48 | 0.48 | 96 | 1003.2 |
| 20260507002031 | 10 | 155 | 4.8 | 16.1 | 0.00 | 0.48 | 0.48 | 96 | 1003.3 |
| 20260507001543 | 10 | 203 | 6.4 | 19.3 | 0.00 | 0.48 | 0.48 | 96 | 1003.4 |
| 20260507001030 | 10 | 203 | 6.4 | 20.9 | 0.00 | 0.48 | 0.48 | 96 | 1003.3 |
| 20260507000530 | 10 | 149 | 6.4 | 25.7 | 0.00 | 0.48 | 0.48 | 96 | 1003.3 |
| 20260507000046 | 10 | 205 | 6.4 | 25.7 | 0.00 | 0.48 | 0.48 | 96 | 1003.4 |
| 20260506235531 | 10 | 221 | 6.4 | 19.3 | 0.00 | 0.48 | 0.48 | 96 | 1003.4 |
| 20260506235030 | 10 | 237 | 8.0 | 24.1 | 0.00 | 0.48 | 0.48 | 96 | 1003.5 |
| 20260506234557 | 10 | 161 | 6.4 | 24.1 | 0.00 | 0.48 | 0.48 | 95 | 1003.4 |
| 20260506234030 | 10 | 199 | 4.8 | 27.4 | 0.00 | 0.48 | 0.48 | 96 | 1003.4 |
| 20260506233530 | 11 | 137 | 6.4 | 27.4 | 0.00 | 0.48 | 0.48 | 96 | 1003.3 |
| 20260506233041 | 11 | 190 | 6.4 | 19.3 | 0.00 | 0.48 | 0.48 | 96 | 1003.4 |
| 20260506232530 | 11 | 202 | 6.4 | 20.9 | 0.00 | 0.48 | 0.48 | 95 | 1003.5 |
| 20260506232030 | 11 | 148 | 8.0 | 29.0 | 0.00 | 0.48 | 0.48 | 96 | 1003.5 |
| 20260506231548 | 11 | 196 | 8.0 | 29.0 | 0.03 | 0.48 | 0.48 | 96 | 1003.5 |
| 20260506231031 | 11 | 168 | 9.7 | 29.0 | 0.03 | 0.48 | 0.48 | 95 | 1003.4 |
| 20260506230533 | 11 | 259 | 9.7 | 25.7 | 0.05 | 0.48 | 0.48 | 96 | 1003.5 |
| 20260506230048 | 11 | 242 | 8.0 | 24.1 | 0.08 | 0.48 | 0.48 | 95 | 1003.5 |
| 20260506225532 | 11 | 194 | 8.0 | 24.1 | 0.08 | 0.48 | 0.48 | 96 | 1003.5 |
| 20260506225032 | 11 | 217 | 8.0 | 24.1 | 0.10 | 0.48 | 0.48 | 95 | 1003.5 |
| 20260506224547 | 11 | 161 | 11.3 | 24.1 | 0.13 | 0.48 | 0.48 | 95 | 1003.5 |
| 20260506224033 | 11 | 238 | 8.0 | 22.5 | 0.18 | 0.48 | 0.48 | 95 | 1003.6 |
| 20260506223532 | 11 | 228 | 8.0 | 29.0 | 0.18 | 0.48 | 0.48 | 95 | 1003.7 |
| 20260506223050 | 11 | 175 | 6.4 | 29.0 | 0.20 | 0.48 | 0.48 | 95 | 1003.8 |
| 20260506222532 | 11 | 192 | 8.0 | 25.7 | 0.23 | 0.48 | 0.48 | 95 | 1003.7 |
| 20260506222034 | 11 | 211 | 8.0 | 22.5 | 0.23 | 0.48 | 0.48 | 95 | 1003.7 |
| 20260506221545 | 11 | 227 | 8.0 | 25.7 | 0.23 | 0.46 | 0.46 | 95 | 1003.8 |
| 20260506221033 | 11 | 181 | 8.0 | 25.7 | 0.25 | 0.46 | 0.46 | 96 | 1003.9 |
| 20260506220536 | 11 | 184 | 8.0 | 25.7 | 0.25 | 0.43 | 0.43 | 95 | 1004.0 |
| 20260506220046 | 11 | 231 | 8.0 | 27.4 | 0.23 | 0.41 | 0.41 | 95 | 1003.9 |
| 20260506215532 | 11 | 167 | 11.3 | 27.4 | 0.25 | 0.41 | 0.41 | 95 | 1004.2 |
| 20260506215033 | 11 | 144 | 9.7 | 32.2 | 0.23 | 0.38 | 0.38 | 95 | 1004.2 |
| 20260506214544 | 11 | 219 | 9.7 | 32.2 | 0.20 | 0.36 | 0.36 | 95 | 1004.2 |
| 20260506214034 | 11 | 252 | 9.7 | 27.4 | 0.18 | 0.30 | 0.30 | 95 | 1004.2 |
| 20260506213534 | 11 | 203 | 8.0 | 24.1 | 0.15 | 0.28 | 0.28 | 94 | 1004.2 |
| 20260506213046 | 11 | 230 | 8.0 | 30.6 | 0.15 | 0.28 | 0.28 | 94 | 1004.3 |
| 20260506212532 | 11 | 199 | 8.0 | 30.6 | 0.13 | 0.25 | 0.25 | 94 | 1004.3 |
| 20260506212035 | 11 | 190 | 6.4 | 19.3 | 0.13 | 0.25 | 0.25 | 94 | 1004.4 |
| 20260506211552 | 11 | 203 | 8.0 | 19.3 | 0.10 | 0.23 | 0.23 | 94 | 1004.5 |
| 20260506211034 | 11 | 238 | 4.8 | 24.1 | 0.08 | 0.20 | 0.20 | 93 | 1004.4 |
| 20260506210533 | 11 | 256 | 8.0 | 24.1 | 0.05 | 0.18 | 0.18 | 93 | 1004.4 |
| 20260506210053 | 11 | 234 | 9.7 | 24.1 | 0.08 | 0.18 | 0.18 | 93 | 1004.4 |
| 20260506205532 | 11 | 162 | 8.0 | 25.7 | 0.05 | 0.15 | 0.15 | 93 | 1004.4 |
| 20260506205033 | 11 | 226 | 9.7 | 25.7 | 0.08 | 0.15 | 0.15 | 92 | 1004.4 |
| 20260506204558 | 11 | 188 | 6.4 | 16.1 | 0.08 | 0.15 | 0.15 | 92 | 1004.6 |
| 20260506204032 | 11 | 213 | 4.8 | 16.1 | 0.05 | 0.13 | 0.13 | 92 | 1004.5 |
| 20260506203532 | 11 | 214 | 6.4 | 16.1 | 0.05 | 0.13 | 0.13 | 92 | 1004.6 |
| 20260506203048 | 12 | 211 | 4.8 | 22.5 | 0.10 | 0.13 | 0.13 | 92 | 1004.6 |
| 20260506202533 | 12 | 177 | 6.4 | 22.5 | 0.13 | 0.13 | 0.13 | 92 | 1004.6 |
| 20260506202033 | 12 | 243 | 6.4 | 17.7 | 0.13 | 0.13 | 0.13 | 92 | 1004.5 |
| 20260506201553 | 12 | 182 | 8.0 | 17.7 | 0.13 | 0.13 | 0.13 | 92 | 1004.6 |
| 20260506201033 | 12 | 218 | 8.0 | 25.7 | 0.13 | 0.13 | 0.13 | 92 | 1004.5 |
| 20260506200618 | 12 | 182 | 8.0 | 25.7 | 0.13 | 0.13 | 0.13 | 92 | 1004.6 |
| 20260506200105 | 12 | 224 | 9.7 | 19.3 | 0.10 | 0.10 | 0.10 | 92 | 1005.3 |
| 20260506195533 | 12 | 176 | 4.8 | 16.1 | 0.10 | 0.10 | 0.10 | 92 | 1004.9 |
| 20260506195034 | 12 | 134 | 6.4 | 14.5 | 0.08 | 0.08 | 0.08 | 92 | 1005.0 |
| 20260506194549 | 12 | 235 | 3.2 | 12.9 | 0.08 | 0.08 | 0.08 | 92 | 1005.1 |
| 20260506194033 | 12 | 180 | 4.8 | 19.3 | 0.08 | 0.08 | 0.08 | 91 | 1005.2 |
| 20260506193532 | 12 | 224 | 4.8 | 19.3 | 0.05 | 0.05 | 0.05 | 91 | 1005.3 |
| 20260506193043 | 12 | 258 | 6.4 | 20.9 | 0.03 | 0.03 | 0.03 | 91 | 1005.4 |
| 20260506192532 | 12 | 168 | 6.4 | 20.9 | 0.00 | 0.00 | 0.00 | 91 | 1005.3 |
| 20260506192033 | 12 | 221 | 6.4 | 22.5 | 0.00 | 0.00 | 0.00 | 91 | 1005.2 |
| 20260506191547 | 11 | 161 | 6.4 | 22.5 | 0.00 | 0.00 | 0.00 | 91 | 1005.2 |
| 20260506191033 | 11 | 216 | 6.4 | 19.3 | 0.00 | 0.00 | 0.00 | 90 | 1005.1 |
| 20260506190533 | 11 | 221 | 8.0 | 25.7 | 0.00 | 0.00 | 0.00 | 90 | 1005.3 |
| 20260506190046 | 11 | 217 | 11.3 | 25.7 | 0.00 | 0.00 | 0.00 | 89 | 1005.3 |
| 20260506185532 | 11 | 214 | 6.4 | 20.9 | 0.00 | 0.00 | 0.00 | 89 | 1005.2 |
| 20260506185034 | 11 | 174 | 9.7 | 22.5 | 0.00 | 0.00 | 0.00 | 88 | 1005.0 |
| 20260506184544 | 11 | 242 | 8.0 | 22.5 | 0.00 | 0.00 | 0.00 | 88 | 1004.9 |
| 20260506184032 | 12 | 176 | 8.0 | 20.9 | 0.00 | 0.00 | 0.00 | 88 | 1004.8 |
| 20260506183532 | 12 | 194 | 8.0 | 22.5 | 0.00 | 0.00 | 0.00 | 87 | 1004.9 |
| 20260506183059 | 12 | 196 | 6.4 | 25.7 | 0.00 | 0.00 | 0.00 | 87 | 1004.9 |
| 20260506182531 | 12 | 102 | 9.7 | 27.4 | 0.00 | 0.00 | 0.00 | 87 | 1004.9 |
| 20260506182033 | 12 | 200 | 9.7 | 27.4 | 0.00 | 0.00 | 0.00 | 87 | 1005.0 |
| 20260506181554 | 12 | 106 | 9.7 | 24.1 | 0.00 | 0.00 | 0.00 | 86 | 1005.1 |
| 20260506181033 | 12 | 198 | 8.0 | 29.0 | 0.00 | 0.00 | 0.00 | 86 | 1005.1 |
| 20260506180534 | 12 | 217 | 6.4 | 29.0 | 0.00 | 0.00 | 0.00 | 85 | 1005.1 |
| 20260506180100 | 12 | 237 | 9.7 | 25.7 | 0.00 | 0.00 | 0.00 | 85 | 1005.1 |
| 20260506175535 | 12 | 187 | 8.0 | 30.6 | 0.00 | 0.00 | 0.00 | 85 | 1005.1 |
| 20260506175032 | 12 | 259 | 8.0 | 33.8 | 0.00 | 0.00 | 0.00 | 85 | 1005.2 |
| 20260506174546 | 12 | 311 | 6.4 | 33.8 | 0.00 | 0.00 | 0.00 | 85 | 1005.2 |
| 20260506174033 | 12 | 205 | 8.0 | 24.1 | 0.00 | 0.00 | 0.00 | 85 | 1005.1 |
| 20260506173533 | 12 | 199 | 9.7 | 24.1 | 0.00 | 0.00 | 0.00 | 85 | 1005.2 |
| 20260506173053 | 12 | 180 | 9.7 | 19.3 | 0.00 | 0.00 | 0.00 | 85 | 1005.3 |
| 20260506172533 | 12 | 232 | 8.0 | 19.3 | 0.00 | 0.00 | 0.00 | 86 | 1005.4 |
| 20260506172033 | 12 | 219 | 6.4 | 16.1 | 0.00 | 0.00 | 0.00 | 86 | 1005.4 |
| 20260506171547 | 12 | 249 | 6.4 | 16.1 | 0.00 | 0.00 | 0.00 | 85 | 1005.5 |
| 20260506171033 | 12 | 245 | 4.8 | 16.1 | 0.00 | 0.00 | 0.00 | 86 | 1005.6 |
| 20260506170532 | 12 | 149 | 4.8 | 22.5 | 0.00 | 0.00 | 0.00 | 86 | 1005.6 |
| 20260506170047 | 12 | 190 | 4.8 | 22.5 | 0.00 | 0.00 | 0.00 | 86 | 1005.8 |
| 20260506165534 | 12 | 191 | 6.4 | 20.9 | 0.00 | 0.00 | 0.00 | 86 | 1005.8 |
| 20260506165031 | 12 | 237 | 6.4 | 25.7 | 0.00 | 0.00 | 0.00 | 85 | 1006.0 |
| 20260506164546 | 12 | 159 | 8.0 | 25.7 | 0.00 | 0.00 | 0.00 | 85 | 1006.1 |
| 20260506164030 | 12 | 131 | 9.7 | 22.5 | 0.00 | 0.00 | 0.00 | 85 | 1006.1 |
| 20260506163530 | 12 | 187 | 6.4 | 22.5 | 0.00 | 0.00 | 0.00 | 85 | 1006.1 |
| 20260506163051 | 12 | 128 | 4.8 | 17.7 | 0.00 | 0.00 | 0.00 | 86 | 1006.2 |
| 20260506162534 | 12 | 228 | 8.0 | 19.3 | 0.00 | 0.00 | 0.00 | 85 | 1006.4 |
| 20260506162030 | 12 | 146 | 8.0 | 19.3 | 0.00 | 0.00 | 0.00 | 85 | 1006.6 |
| 20260506161556 | 13 | 249 | 6.4 | 19.3 | 0.00 | 0.00 | 0.00 | 85 | 1006.7 |
| 20260506161030 | 13 | 169 | 8.0 | 24.1 | 0.00 | 0.00 | 0.00 | 85 | 1006.8 |
| 20260506160531 | 13 | 225 | 11.3 | 24.1 | 0.00 | 0.00 | 0.00 | 85 | 1006.9 |
| 20260506160047 | 12 | 217 | 9.7 | 25.7 | 0.00 | 0.00 | 0.00 | 86 | 1007.0 |
| 20260506155530 | 12 | 215 | 12.9 | 29.0 | 0.00 | 0.00 | 0.00 | 86 | 1007.1 |
| 20260506155030 | 12 | 164 | 8.0 | 29.0 | 0.00 | 0.00 | 0.00 | 86 | 1007.1 |
| 20260506154542 | 12 | 166 | 8.0 | 20.9 | 0.00 | 0.00 | 0.00 | 87 | 1007.2 |
| 20260506154030 | 12 | 297 | 6.4 | 22.5 | 0.00 | 0.00 | 0.00 | 87 | 1007.1 |
| 20260506153530 | 12 | 229 | 8.0 | 22.5 | 0.00 | 0.00 | 0.00 | 87 | 1007.1 |
| 20260506153048 | 12 | 188 | 8.0 | 25.7 | 0.00 | 0.00 | 0.00 | 87 | 1007.0 |
| 20260506152530 | 12 | 228 | 8.0 | 25.7 | 0.00 | 0.00 | 0.00 | 87 | 1007.2 |
| 20260506152031 | 12 | 211 | 8.0 | 25.7 | 0.00 | 0.00 | 0.00 | 87 | 1007.3 |
| 20260506151601 | 12 | 205 | 6.4 | 20.9 | 0.00 | 0.00 | 0.00 | 86 | 1007.2 |
| 20260506151030 | 12 | 196 | 8.0 | 24.1 | 0.00 | 0.00 | 0.00 | 85 | 1007.1 |
| 20260506150530 | 12 | 219 | 8.0 | 24.1 | 0.00 | 0.00 | 0.00 | 85 | 1007.1 |
| 20260506150047 | 13 | 233 | 8.0 | 22.5 | 0.00 | 0.00 | 0.00 | 84 | 1007.1 |
| 20260506145530 | 13 | 234 | 9.7 | 22.5 | 0.00 | 0.00 | 0.00 | 85 | 1007.1 |
| 20260506145031 | 13 | 242 | 6.4 | 20.9 | 0.00 | 0.00 | 0.00 | 85 | 1006.9 |
| 20260506144542 | 13 | 202 | 9.7 | 24.1 | 0.00 | 0.00 | 0.00 | 86 | 1006.7 |
| 20260506144038 | 12 | 142 | 6.4 | 24.1 | 0.00 | 0.00 | 0.00 | 87 | 1006.7 |
| 20260506143531 | 12 | 200 | 9.7 | 24.1 | 0.00 | 0.00 | 0.00 | 87 | 1006.7 |
| 20260506143053 | 12 | 188 | 8.0 | 24.1 | 0.00 | 0.00 | 0.00 | 88 | 1006.8 |
| 20260506142530 | 12 | 162 | 8.0 | 17.7 | 0.00 | 0.00 | 0.00 | 89 | 1006.8 |
| 20260506142028 | 12 | 239 | 8.0 | 22.5 | 0.00 | 0.00 | 0.00 | 89 | 1007.0 |
| 20260506141549 | 11 | 222 | 9.7 | 22.5 | 0.00 | 0.00 | 0.00 | 89 | 1007.0 |
| 20260506141031 | 12 | 186 | 8.0 | 30.6 | 0.00 | 0.00 | 0.00 | 89 | 1007.0 |
| 20260506140531 | 12 | 219 | 8.0 | 30.6 | 0.00 | 0.00 | 0.00 | 89 | 1007.2 |
| 20260506140056 | 12 | 215 | 8.0 | 30.6 | 0.00 | 0.00 | 0.00 | 89 | 1007.3 |
| 20260506135531 | 12 | 171 | 6.4 | 24.1 | 0.00 | 0.00 | 0.00 | 89 | 1007.2 |
| 20260506135030 | 11 | 175 | 6.4 | 24.1 | 0.00 | 0.00 | 0.00 | 89 | 1007.3 |
| 20260506134547 | 11 | 203 | 8.0 | 16.1 | 0.00 | 0.00 | 0.00 | 89 | 1007.2 |
| 20260506134030 | 11 | 138 | 6.4 | 19.3 | 0.00 | 0.00 | 0.00 | 89 | 1007.2 |
| 20260506133530 | 11 | 231 | 9.7 | 24.1 | 0.00 | 0.00 | 0.00 | 89 | 1007.3 |
| 20260506133042 | 11 | 209 | 6.4 | 24.1 | 0.00 | 0.00 | 0.00 | 89 | 1007.3 |
| 20260506132531 | 11 | 181 | 9.7 | 24.1 | 0.00 | 0.00 | 0.00 | 89 | 1007.0 |
| 20260506132030 | 11 | 215 | 8.0 | 17.7 | 0.00 | 0.00 | 0.00 | 89 | 1007.1 |
| 20260506131552 | 11 | 250 | 9.7 | 22.5 | 0.00 | 0.00 | 0.00 | 90 | 1007.0 |
| 20260506131035 | 11 | 213 | 9.7 | 25.7 | 0.00 | 0.00 | 0.00 | 89 | 1007.0 |
| 20260506130530 | 11 | 175 | 8.0 | 25.7 | 0.00 | 0.00 | 0.00 | 89 | 1007.0 |
| 20260506125530 | 11 | 129 | 8.0 | 24.1 | 0.00 | 0.00 | 0.00 | 89 | 1007.0 |
| 20260506125030 | 11 | 184 | 6.4 | 24.1 | 0.00 | 0.00 | 0.00 | 89 | 1007.0 |
| 20260506124540 | 11 | 289 | 8.0 | 24.1 | 0.00 | 0.00 | 0.00 | 89 | 1007.1 |
| 20260506124030 | 12 | 219 | 8.0 | 22.5 | 0.00 | 0.00 | 0.00 | 89 | 1007.1 |
| 20260506123530 | 11 | 152 | 8.0 | 20.9 | 0.00 | 0.00 | 0.00 | 89 | 1007.0 |
| 20260506123047 | 11 | 237 | 8.0 | 27.4 | 0.00 | 0.00 | 0.00 | 89 | 1007.0 |
| 20260506122530 | 11 | 215 | 8.0 | 27.4 | 0.00 | 0.00 | 0.00 | 89 | 1007.0 |
| 20260506122030 | 11 | 242 | 6.4 | 19.3 | 0.00 | 0.00 | 0.00 | 89 | 1007.4 |
| 20260506121543 | 11 | 227 | 8.0 | 22.5 | 0.00 | 0.00 | 0.00 | 89 | 1007.3 |
| 20260506121031 | 11 | 233 | 6.4 | 22.5 | 0.00 | 0.00 | 0.00 | 89 | 1007.3 |
| 20260506120531 | 11 | 136 | 6.4 | 17.7 | 0.00 | 0.00 | 0.00 | 89 | 1007.3 |
| 20260506120043 | 11 | 246 | 8.0 | 17.7 | 0.00 | 0.00 | 0.00 | 89 | 1007.2 |
| 20260506115531 | 11 | 186 | 6.4 | 17.7 | 0.00 | 0.00 | 0.00 | 89 | 1007.4 |
| 20260506115030 | 11 | 227 | 8.0 | 17.7 | 0.00 | 0.00 | 0.00 | 89 | 1007.6 |
| 20260506114542 | 11 | 281 | 6.4 | 19.3 | 0.00 | 0.00 | 0.00 | 89 | 1007.5 |
| 20260506114030 | 11 | 220 | 6.4 | 19.3 | 0.00 | 0.00 | 0.00 | 89 | 1007.5 |
| 20260506113530 | 11 | 200 | 8.0 | 19.3 | 0.00 | 0.00 | 0.00 | 89 | 1007.6 |
| 20260506113044 | 11 | 162 | 6.4 | 17.7 | 0.00 | 0.00 | 0.00 | 89 | 1007.7 |
| 20260506112530 | 11 | 173 | 6.4 | 17.7 | 0.00 | 0.00 | 0.00 | 89 | 1007.5 |
| 20260506112030 | 11 | 200 | 4.8 | 16.1 | 0.00 | 0.00 | 0.00 | 89 | 1007.5 |
| 20260506111546 | 11 | 213 | 3.2 | 16.1 | 0.00 | 0.00 | 0.00 | 89 | 1007.7 |
| 20260506111030 | 11 | 250 | 6.4 | 17.7 | 0.00 | 0.00 | 0.00 | 89 | 1007.7 |
| 20260506110530 | 11 | 198 | 3.2 | 17.7 | 0.00 | 0.00 | 0.00 | 89 | 1007.4 |
| 20260506110051 | 11 | 207 | 4.8 | 17.7 | 0.00 | 0.00 | 0.00 | 89 | 1007.5 |
| 20260506105530 | 11 | 184 | 4.8 | 17.7 | 0.00 | 0.00 | 0.00 | 89 | 1007.5 |
| 20260506105031 | 11 | 209 | 6.4 | 16.1 | 0.00 | 0.00 | 0.00 | 89 | 1007.6 |
| 20260506104539 | 11 | 203 | 6.4 | 16.1 | 0.00 | 0.00 | 0.00 | 89 | 1007.5 |
| 20260506104030 | 11 | 196 | 4.8 | 19.3 | 0.00 | 0.00 | 0.00 | 89 | 1007.4 |
| 20260506103531 | 11 | 252 | 6.4 | 19.3 | 0.00 | 0.00 | 0.00 | 89 | 1007.2 |
| 20260506103043 | 11 | 240 | 9.7 | 19.3 | 0.00 | 0.00 | 0.00 | 89 | 1007.4 |
| 20260506102531 | 11 | 190 | 6.4 | 20.9 | 0.00 | 0.00 | 0.00 | 89 | 1007.5 |
| 20260506102031 | 11 | 205 | 6.4 | 20.9 | 0.00 | 0.00 | 0.00 | 89 | 1007.5 |
| 20260506101551 | 11 | 213 | 6.4 | 16.1 | 0.00 | 0.00 | 0.00 | 90 | 1007.3 |
| 20260506101030 | 11 | 218 | 6.4 | 16.1 | 0.00 | 0.00 | 0.00 | 90 | 1007.2 |
| 20260506100530 | 11 | 146 | 6.4 | 16.1 | 0.00 | 0.00 | 0.00 | 90 | 1007.1 |
| 20260506100039 | 10 | 138 | 4.8 | 16.1 | 0.00 | 0.00 | 0.00 | 90 | 1007.1 |
| 20260506095530 | 10 | 175 | 6.4 | 16.1 | 0.00 | 0.00 | 0.00 | 90 | 1007.3 |
| 20260506095030 | 10 | 223 | 8.0 | 16.1 | 0.00 | 0.00 | 0.00 | 90 | 1007.4 |
| 20260506094553 | 10 | 207 | 4.8 | 19.3 | 0.00 | 0.00 | 0.00 | 89 | 1007.3 |
| 20260506094032 | 10 | 138 | 6.4 | 19.3 | 0.00 | 0.00 | 0.00 | 89 | 1007.1 |
| 20260506093530 | 10 | 197 | 6.4 | 19.3 | 0.00 | 0.00 | 0.00 | 89 | 1007.1 |
| 20260506093039 | 10 | 208 | 6.4 | 17.7 | 0.00 | 0.00 | 0.00 | 89 | 1007.1 |
| 20260506092531 | 10 | 219 | 6.4 | 17.7 | 0.00 | 0.00 | 0.00 | 89 | 1007.1 |
| 20260506092034 | 10 | 234 | 6.4 | 17.7 | 0.00 | 0.00 | 0.00 | 89 | 1007.1 |
| 20260506091539 | 10 | 159 | 4.8 | 16.1 | 0.00 | 0.00 | 0.00 | 89 | 1007.1 |
| 20260506091031 | 10 | 214 | 4.8 | 16.1 | 0.00 | 0.00 | 0.00 | 89 | 1007.1 |
| 20260506090530 | 10 | 230 | 4.8 | 16.1 | 0.00 | 0.00 | 0.00 | 88 | 1007.1 |
| 20260506090043 | 10 | 227 | 6.4 | 16.1 | 0.00 | 0.00 | 0.00 | 88 | 1007.2 |